Theta_e
314 317 321 325 326 327 326 326 325 322 318 316 316 315 314 315 312 308 310 310 310 310 309 309 309 307 307 307 306 305 305 303
314 317 320 321 323 323 322 321 321 320 316 315 315 315 314 309 309 309 309 309 308 309 307 307 307 306 306 306 305 302 301 304
310 315 319 321 321 320 320 319 317 316 317 317 318 317 312 307 307 307 306 307 306 306 307 307 307 306 306 305 303 300 302 303
309 311 314 316 315 315 315 315 315 314 315 314 312 311 310 308 305 305 305 306 306 306 307 307 306 306 304 303 302 301 298 300
305 305 306 307 307 309 310 310 310 309 310 310 310 309 307 306 304 305 306 306 306 304 305 305 305 304 303 302 300 299 298 294
304 305 306 306 307 308 308 308 307 307 308 309 307 306 305 304 305 304 304 305 304 303 303 303 303 302 301 300 298 297 296 294
305 306 306 305 306 307 306 305 304 305 306 306 306 305 303 303 303 303 303 304 305 304 302 302 301 300 299 298 297 295 295 294
305 305 304 304 304 304 303 303 301 303 303 303 302 302 302 302 302 301 301 301 301 302 301 300 299 298 297 298 296 295 294 293
304 303 302 301 301 301 302 302 301 301 302 301 301 299 298 297 297 297 296 297 298 301 301 299 298 299 298 297 296 295 295 294
303 302 301 301 301 301 300 298 297 297 297 297 296 296 296 295 296 296 295 297 298 300 299 298 299 298 297 296 295 295 294 294
300 299 300 301 301 298 297 296 295 295 295 296 295 295 295 296 296 295 295 297 298 299 298 298 297 298 296 295 294 294 292 293
298 298 298 299 297 296 295 294 295 294 294 295 295 295 295 295 295 295 295 296 297 298 298 296 297 295 295 294 293 292 291 292
297 296 295 295 295 294 293 295 294 294 294 294 294 294 295 294 294 294 295 294 296 295 294 294 294 294 294 292 291 291 290 289
296 295 293 293 293 293 294 293 292 293 292 293 293 293 293 294 294 294 294 294 293 294 294 292 292 293 291 290 290 289 288 287
297 295 293 293 293 294 293 293 293 292 292 292 292 293 293 293 294 294 294 294 294 294 293 293 293 291 289 289 288 287 286 286
295 294 293 293 292 293 294 293 293 293 292 291 292 293 294 294 293 293 293 294 295 293 290 288 288 288 287 287 287 286 286 286
296 295 293 292 293 294 292 292 292 292 291 291 292 292 293 293 292 292 293 293 293 290 289 288 287 286 286 286 286 285 284 282
295 295 295 294 293 293 292 291 291 290 290 291 291 291 292 292 291 291 291 292 293 292 288 288 287 287 284 283 282 282 281 281
296 296 295 294 292 291 291 290 289 289 289 290 290 291 290 291 290 290 291 291 291 291 288 287 286 284 282 281 281 282 281 280
Wind_Speed
6 8 8 10 11 13 13 9 9 10 7 7 6 6 4 3 4 4 5 6 6 5 5 4 4 4 4 3 4 4 4 5
6 8 10 14 12 13 12 12 10 9 8 7 4 4 4 4 5 7 7 7 7 6 4 4 3 4 3 2 1 4 4 6
8 9 9 10 10 10 10 10 11 9 7 3 2 3 4 5 5 6 6 6 5 4 3 2 1 0 0 3 4 3 3 4
12 11 10 8 10 10 11 9 7 5 4 4 4 5 4 3 3 3 3 3 2 1 1 2 1 1 1 3 4 5 6 4
11 11 10 11 8 8 9 8 7 6 5 3 4 3 3 3 2 1 2 5 6 4 2 1 1 2 3 3 4 5 5 5
13 14 12 10 10 8 8 11 9 8 8 7 6 7 4 3 1 3 5 5 5 5 3 1 2 3 4 4 3 4 3 3
6 6 8 10 10 9 11 14 13 12 12 11 10 7 5 5 6 6 6 7 7 5 4 3 4 3 3 2 2 3 3 1
6 6 6 7 11 12 13 14 14 12 12 11 10 8 6 6 7 6 10 8 9 8 5 5 4 4 2 1 2 3 3 2
6 7 8 10 11 13 13 13 13 11 11 10 9 9 5 4 6 7 7 8 9 9 5 6 5 1 2 2 5 4 3 4
9 8 8 9 10 11 12 13 12 11 9 7 7 5 5 5 7 8 8 10 8 5 7 7 2 2 4 5 5 5 5 5
9 8 8 7 10 9 9 10 11 9 8 5 4 4 4 7 8 10 12 11 8 5 7 5 5 5 5 6 5 5 6 5
10 8 7 9 9 9 9 7 7 7 5 4 4 4 6 6 8 10 11 11 9 6 7 7 5 5 7 6 6 7 7 7
11 10 10 9 9 8 7 6 5 4 2 2 2 4 5 7 8 10 10 10 9 7 5 6 7 9 8 6 6 7 7 7
10 10 9 9 8 6 5 4 2 3 1 2 2 4 5 7 8 9 9 9 8 8 9 8 8 9 7 4 5 6 5 6
10 9 9 8 7 6 5 4 4 4 4 3 4 5 6 7 8 9 9 9 9 9 6 7 8 7 4 2 2 4 5 6
10 10 11 10 8 8 6 5 4 5 4 5 6 5 6 7 8 9 9 8 7 7 7 5 4 3 3 3 3 4 7 9
11 12 13 10 10 9 7 5 5 3 5 7 6 7 7 7 9 9 9 8 6 5 5 3 5 4 6 8 6 6 7 8
13 13 12 12 11 7 7 5 3 4 5 7 7 7 8 8 9 10 9 8 6 6 3 2 2 6 6 6 7 5 7 8
11 10 9 8 6 5 4 3 3 4 7 7 7 8 8 7 9 9 9 8 7 5 4 4 5 5 4 6 6 6 7 8
Wind_Direction
49 69 78 93 102 116 119 116 122 117 106 117 129 122 135 115 82 76 72 68 64 73 68 58 55 67 60 48 32 34 20 351
74 98 110 107 107 113 120 134 141 133 133 144 148 159 128 108 80 62 56 51 50 55 63 50 44 49 67 62 36 1 358 358
111 106 115 117 129 123 133 136 142 142 153 139 93 137 98 90 76 64 57 61 60 67 58 40 19 348 42 35 10 350 354 22
124 122 118 114 117 127 129 139 138 125 107 108 98 97 115 123 84 81 93 140 141 131 289 311 310 316 75 46 16 2 350 19
121 118 118 127 120 112 116 109 87 64 39 72 78 62 89 67 99 148 3 354 347 327 316 301 7 67 82 74 49 32 4 348
143 155 145 123 115 97 93 82 77 75 75 72 71 72 81 110 163 340 348 342 314 292 296 345 120 125 115 86 65 35 30 360
134 113 124 119 106 110 101 91 77 70 68 63 66 70 60 27 5 342 333 326 326 314 266 198 164 136 97 95 127 146 139 134
158 135 117 109 106 106 94 91 83 76 72 66 64 62 43 12 354 335 326 322 318 314 240 185 150 125 172 267 249 227 209 242
148 121 111 107 106 103 103 95 90 85 84 76 66 53 39 12 351 334 320 314 308 307 231 161 143 47 23 325 266 266 261 264
146 127 119 121 118 113 109 107 103 93 88 83 70 54 34 3 343 338 332 321 312 287 181 174 158 149 242 260 292 288 278 277
142 137 134 125 113 109 103 105 107 108 99 92 84 56 18 4 354 341 330 324 315 241 196 200 176 298 273 294 288 282 276 275
149 144 136 131 129 130 122 119 111 100 94 83 54 30 10 350 340 336 332 323 315 263 219 222 287 273 271 263 259 268 263 275
154 151 150 150 148 152 130 112 110 99 109 68 16 6 345 334 330 330 329 320 315 306 291 286 289 283 272 253 262 262 272 281
160 161 162 158 166 141 129 147 164 201 227 278 334 320 311 319 324 323 321 317 302 291 302 294 293 288 273 290 291 296 294 300
169 170 172 179 173 170 191 201 219 238 240 275 283 286 306 311 315 322 324 319 312 304 300 296 286 291 298 314 283 305 317 303
180 182 188 193 192 207 208 219 227 239 260 265 272 288 297 305 324 326 322 320 321 324 307 331 340 341 37 52 16 337 317 311
192 196 200 204 205 217 208 230 242 253 266 271 286 285 292 314 322 318 316 318 309 319 324 63 72 56 55 53 13 348 328 325
197 200 200 211 216 209 218 233 249 272 280 277 276 291 297 303 315 316 307 306 294 298 265 213 115 83 59 52 33 347 332 331
198 195 204 215 197 192 205 220 286 305 291 287 294 300 289 299 313 311 308 303 294 287 227 167 124 86 62 32 13 343 332 332